• Join FlightAware (Why Join?)
  • Login
  • US Flag GB Flag 
20:21 EDT


 

Airport Tracker/Info


-or-


 

Live Flight TrackerFlight Track Log ✈ EJM685 ✈ 05-May-2013 ✈ KPBI - KTEB

Flight Track Log - Related Links

Times and Time Zones

All times are in EDT time to prevent confusion due to time zone crossing. See the EJM685 flight status page for this flight to view local times or setup timezone preferences in your user account.

Time Position Orientation Groundspeed Altitude Reporting Facility
EDT Latitude Longitude Course Direction KTS MPH feet Rate Location/Type
14:46 26.7142 -80.1289 316° Northwest 181 208 1,600  Level Miami Center
14:47 26.7531 -80.1717 316° Northwest 222 255 4,600 3,600 Climbing Miami Center
14:48 26.8244 -80.1553 12° North 255 293 8,800 3,180 Climbing Miami Center
14:49 26.8472 -80.0672 74° East 243 280 11,000 1,440 Climbing Miami Center
14:50 26.8728 -79.9422 77° East 319 367 11,700 1,500 Climbing Miami Center
14:51 26.9003 -79.8242 75° East 374 430 14,100 2,580 Climbing Miami Center
14:52 26.9300 -79.7017 75° East 399 459 16,900 2,880 Climbing Miami Center
14:53 26.9903 -79.6028 56° Northeast 410 472 19,900 2,760 Climbing Miami Center
14:54 27.0611 -79.4972 53° Northeast 415 478 22,500 1,980 Climbing Miami Center
14:55 27.1386 -79.3775 54° Northeast 432 497 23,900 1,200 Climbing Miami Center
14:56 27.2158 -79.2600 54° Northeast 450 518 25,000 900 Climbing Miami Center
14:57 27.2908 -79.1400 55° Northeast 468 539 25,800 1,080 Climbing Miami Center
14:58 27.3633 -79.0292 54° Northeast 477 549 27,200 1,740 Climbing Miami Center
14:59 27.4656 -78.9072 47° Northeast 477 549 29,300 1,920 Climbing Miami Center
15:00 27.5897 -78.8272 30° Northeast 478 550 31,100 1,860 Climbing Miami Center
15:01 27.7119 -78.7497 29° Northeast 509 586 33,100 1,980 Climbing Miami Center
15:02 27.8314 -78.7164 14° North 494 568 35,100 1,920 Climbing Miami Center
15:03 27.9797 -78.6975 North 476 548 37,000 1,920 Climbing Miami Center
15:04 28.1158 -78.6833 North 481 554 39,000 1,800 Climbing Miami Center
15:05 28.2475 -78.6667 North 481 554 40,700 1,380 Climbing Miami Center
15:06 28.3792 -78.6522 North 481 554 41,800 1,200 Climbing Miami Center
15:07 28.5089 -78.6353 North 474 545 43,200 1,080 Climbing Miami Center
15:08 28.6364 -78.6186 North 469 540 44,000 600 Climbing Miami Center
15:09 28.7681 -78.6017 North 469 540 44,500 480 Climbing Miami Center
15:10 28.8997 -78.5869 North 469 540 45,000 240 Climbing Miami Center
15:11 29.0375 -78.5725 North 475 547 45,000  Level Miami Center
15:12 29.1733 -78.5558 North 482 555 45,000  Level Miami Center
15:13 29.3008 -78.5339 North 482 555 45,000  Level Miami Center
15:15 29.5169 -78.5064 North 480 552 45,000  Level Jacksonville Center
15:16 29.6478 -78.4864 North 480 552 45,000  Level Jacksonville Center
15:17 29.7850 -78.4706 North 487 560 45,000  Level Jacksonville Center
15:18 29.9158 -78.4550 North 476 548 45,000  Level Jacksonville Center
15:19 30.0508 -78.4392 North 481 554 45,000  Level Jacksonville Center
15:20 30.1881 -78.4233 North 476 548 45,000  Level Jacksonville Center
15:21 30.3336 -78.4044 North 481 554 45,000  Level Jacksonville Center
15:22 30.4667 -78.3886 North 483 556 45,000  Level Jacksonville Center
15:23 30.5975 -78.3728 North 477 549 45,000  Level Jacksonville Center
15:24 30.7367 -78.3539 North 485 558 45,000  Level Jacksonville Center
15:25 30.8781 -78.3375 North 485 558 45,000  Level Jacksonville Center
15:26 31.0069 -78.3192 North 480 552 45,000  Level Jacksonville Center
15:27 31.1400 -78.3056 North 480 552 45,000  Level Jacksonville Center
15:28 31.2711 -78.2917 North 482 555 45,000  Level Jacksonville Center
15:29 31.4136 -78.2556 12° North 482 555 45,000  Level Jacksonville Center
15:30 31.5489 -78.2439 North 488 562 45,000  Level Jacksonville Center
15:31 31.6839 -78.2225 North 488 562 45,000  Level Jacksonville Center
15:32 31.8189 -78.2058 North 488 562 45,000  Level Jacksonville Center
15:33 31.9542 -78.1917 North 488 562 45,000  Level Jacksonville Center
15:34 32.0914 -78.1772 North 488 562 45,000  Level Jacksonville Center
15:35 32.2283 -78.1556 North 488 562 45,000  Level Jacksonville Center
15:36 32.3611 -78.1364 North 488 562 45,000  Level Jacksonville Center
15:37 32.5003 -78.1217 North 488 562 45,000  Level Jacksonville Center
15:38 32.6375 -78.1044 North 488 562 45,000  Level Jacksonville Center
15:39 32.7725 -78.0875 North 488 562 45,000  Level Jacksonville Center
15:40 32.9094 -78.0678 North 488 562 45,000  Level Jacksonville Center
15:41 33.0444 -78.0508 North 488 562 45,000  Level Jacksonville Center
15:42 33.1817 -78.0333 North 488 562 45,000  Level Jacksonville Center
15:43 33.3142 -78.0111 North 488 562 45,000  Level Jacksonville Center
15:45 33.5283 -77.9856 North 478 550 45,000  Level Washington Center
15:46 33.6642 -77.9694 North 483 556 45,000  Level Washington Center
15:47 33.7961 -77.9508 North 478 550 45,000  Level Washington Center
15:48 33.9236 -77.9319 North 485 558 45,000  Level Washington Center
15:49 34.0594 -77.9156 North 491 565 45,000  Level Washington Center
15:50 34.1956 -77.8944 North 491 565 45,000  Level Washington Center
15:51 34.3356 -77.8806 North 491 565 45,000  Level Washington Center
15:52 34.4692 -77.8769 North 491 565 45,000  Level Washington Center
15:53 34.6050 -77.8731 North 485 558 45,000  Level Washington Center
15:54 34.7406 -77.8719 360° North 480 552 45,000  Level Washington Center
15:56 35.0203 -77.8644 North 473 544 45,000  Level Washington Center
15:57 35.1539 -77.8631 360° North 478 550 45,000  Level Washington Center
15:58 35.2894 -77.8592 North 478 550 45,000  Level Washington Center
15:59 35.4253 -77.8556 North 483 556 45,000  Level Washington Center
16:00 35.5631 -77.8542 360° North 478 550 45,000  Level Washington Center
16:01 35.6964 -77.8556 360° North 478 550 45,000  Level Washington Center
16:02 35.8322 -77.8517 North 478 550 45,000  Level Washington Center
16:03 35.9700 -77.8506 360° North 478 550 45,000  Level Washington Center
16:04 36.1036 -77.8492 360° North 478 550 45,000  Level Washington Center
16:05 36.2350 -77.8478 360° North 478 550 45,000  Level Washington Center
16:06 36.3664 -77.8464 360° North 478 550 45,000  Level Washington Center
16:07 36.4958 -77.8450 360° North 471 542 45,000  Level Washington Center
16:08 36.6272 -77.8436 360° North 471 542 45,000  Level Washington Center
16:09 36.7631 -77.8422 360° North 471 542 45,000  Level Washington Center
16:10 36.8967 -77.8333 North 476 548 45,000  Level Washington Center
16:11 37.0189 -77.7667 24° Northeast 471 542 45,000  Level Washington Center
16:12 37.1369 -77.6892 28° Northeast 466 536 45,000  Level Washington Center
16:13 37.2594 -77.6142 26° Northeast 471 542 45,000  Level Washington Center
16:14 37.3817 -77.5364 27° Northeast 481 554 45,000  Level Washington Center
16:15 37.5039 -77.4558 28° Northeast 486 559 45,000  Level Washington Center
16:16 37.6197 -77.3800 27° Northeast 481 554 45,000  Level Washington Center
16:17 37.7378 -77.3039 27° Northeast 476 548 45,000  Level Washington Center
16:18 37.8556 -77.2250 28° Northeast 476 548 45,000 -360 Level Washington Center
16:19 37.9775 -77.1486 26° Northeast 481 554 44,300 -1,140 Descending Washington Center
16:20 38.0933 -77.0719 28° Northeast 481 554 42,800 -1,740 Descending Washington Center
16:21 38.2025 -76.9975 28° Northeast 463 533 40,800 -2,460 Descending Washington Center
16:22 38.3017 -76.8989 38° Northeast 450 518 37,900 -2,880 Descending Washington Center
16:23 38.3967 -76.7969 40° Northeast 442 509 35,100 -2,940 Descending Washington Center
16:24 38.4975 -76.6953 38° Northeast 447 514 32,200 -2,940 Descending Washington Center
16:25 38.5944 -76.5903 40° Northeast 453 521 29,300 -2,700 Descending Washington Center
16:26 38.6931 -76.4906 38° Northeast 453 521 26,800 -2,160 Descending Washington Center
16:27 38.7936 -76.4253 27° Northeast 430 495 25,100 -1,140 Descending Washington Center
16:28 38.8983 -76.3706 22° Northeast 413 475 24,600 -420 Descending Washington Center
16:29 39.0028 -76.3156 22° Northeast 405 466 24,300 -300 Descending Washington Center
16:30 39.1033 -76.2603 23° Northeast 392 451 24,100 -180 Descending Washington Center
16:31 39.1933 -76.1808 34° Northeast 387 445 24,000 -180 Descending Washington Center
16:32 39.2708 -76.0983 39° Northeast 397 457 23,800 -1,080 Descending Washington Center
16:33 39.3544 -76.0131 38° Northeast 386 444 21,900 -1,860 Descending Washington Center
16:34 39.4403 -75.9328 36° Northeast 381 438 20,100 -1,800 Descending Washington Center
16:35 39.5236 -75.8553 36° Northeast 381 438 18,300 -1,800 Descending Washington Center
16:36 39.6072 -75.7747 37° Northeast 381 438 16,600 -1,800 Descending Washington Center
16:37 39.7500 -75.6500 34° Northeast 352 405 13,700 -1,380 Descending Philadelphia TRACON
16:38 39.8167 -75.5667 44° Northeast 342 394 13,000 -360 Descending Philadelphia TRACON
16:39 39.9000 -75.5000 32° Northeast 346 398 13,000  Level Philadelphia TRACON
16:40 39.9833 -75.4333 32° Northeast 345 397 13,000  Level Philadelphia TRACON
16:41 40.0500 -75.3667 37° Northeast 292 336 13,100  Climbing Philadelphia TRACON
16:42 40.1167 -75.3000 37° Northeast 298 343 13,000 -360 Descending Philadelphia TRACON
16:43 40.1833 -75.2333 37° Northeast 296 341 12,400 -1,020 Descending Philadelphia TRACON
16:44 40.2500 -75.1833 30° Northeast 299 344 11,000 -1,560 Descending Philadelphia TRACON
16:45 40.3167 -75.1167 37° Northeast 287 330 9,300 -1,620 Descending Philadelphia TRACON
16:46 40.3333 -75.0833 57° Northeast 284 327 8,800 -1,560 Descending New York TRACON
16:47 40.3833 -75.0167 45° Northeast 278 320 7,200 -900 Descending New York TRACON
16:48 40.4333 -74.9500 45° Northeast 266 306 7,000 -600 Descending New York TRACON
16:49 40.4833 -74.8667 52° Northeast 268 308 6,000 -1,260 Descending New York TRACON
16:50 40.5333 -74.8000 45° Northeast 256 295 4,600 -1,020 Descending New York TRACON
16:51 40.5833 -74.7333 45° Northeast 254 292 4,000 -360 Descending New York TRACON
16:52 40.6500 -74.7000 21° North 257 296 4,000  Level New York TRACON
16:53 40.7167 -74.6500 30° Northeast 254 292 4,000  Level New York TRACON
16:54 40.7833 -74.6167 21° North 256 295 4,000  Level New York TRACON
16:55 40.8500 -74.5667 30° Northeast 251 289 4,000  Level New York TRACON
16:56 40.9000 -74.5333 27° Northeast 251 289 4,000  Level New York TRACON
16:58 41.0333 -74.4500 25° Northeast 257 296 4,000  Level New York TRACON
16:59 41.0667 -74.3833 56° Northeast 259 298 4,000 -240 Level New York TRACON
17:00 41.0500 -74.2833 102° East 254 292 3,500 -540 Descending New York TRACON
17:01 41.0500 -74.2000 90° East 223 257 3,000 -300 Descending New York TRACON
17:02 41.0333 -74.1333 108° East 196 226 3,000 -240 Level New York TRACON
17:03 41.0167 -74.0667 108° East 189 217 2,600 -480 Descending New York TRACON
17:04 40.9833 -74.0500 159° South 175 201 2,100 -480 Descending New York TRACON
17:05 40.9333 -74.0500 180° South 153 176 1,700 -600 Descending New York TRACON
17:06 40.9000 -74.0500 180° South 121 139 1,000 -660 Descending New York TRACON
17:07 40.8667 -74.0667 201° Southwest 118 136 400 -600 Descending New York TRACON